Flag for Canada Weather past 2 weeks in Summerside, Pr.Edward I, Canada

Now
54 °F

Cool.


Feels Like: 49 °F
Forecast: 38 / 51 °F
Wind: 22 mph from Southwest

Location: Summerside Airport

Current Time: Dec 25, 2014 at 4:11:25 PM

Latest Report: Dec 25, 2014 at 3:00 PM


Visibility: N/A

Pressure: 29.29 "Hg

Humidity: 83%

Dew point: 49 °F

Location of SummersideLocation

Historic Weather in Summerside — Graph

°F

Summerside temperature yesterday

Maximum temperature yesterday: 49 °F (at 11:00 PM)
Minimum temperature yesterday: 30 °F (at 12:00 AM)
Average temperature yesterday: 36 °F

Past Weeks' High & Low Weather Summary

 TemperatureHumidityPressure
High57 °F (Dec 25, 12:00 PM)100% (Dec 15, 12:00 AM)30.50 "Hg (Dec 15, 12:00 AM)
Low27 °F (Dec 22, 2:00 AM)65% (Dec 16, 6:00 AM)29.29 "Hg (Dec 25, 3:00 PM)
Average34 °F81%29.96 "Hg
* Reported Dec 10 3:00 PM — Dec 25 3:00 PM, Summerside, Weather by CustomWeather, © 2014

Note: Actual official high and low records may vary slightly from our data, if they occured in-between our weather recording intervals... More about our weather records

Advertising

Summerside weather history for previous 24 hours

 ConditionsComfort  
Time TempWeatherWind HumidityBarometerVisibility
3:00 PM
Dec 25
54 °FCool.22 mph83%29.29 "HgN/A
2:00 PM55 °FCool.23 mph83%29.32 "HgN/A
1:00 PM56 °FCool.24 mph83%29.31 "HgN/A
12:00 PM57 °FCool.25 mph83%29.35 "HgN/A
11:00 AM55 °FCool.24 mph83%29.42 "HgN/A
10:00 AM54 °FCool.17 mph83%29.47 "HgN/A
9:00 AM54 °FCool.23 mph82%29.50 "HgN/A
8:00 AM56 °FCool.25 mph76%29.52 "HgN/A
7:00 AM55 °FCool.26 mph82%29.55 "HgN/A
6:00 AM55 °FCool.25 mph82%29.59 "HgN/A
5:00 AM53 °FCool.24 mph83%29.62 "HgN/A
4:00 AM52 °FCool.26 mph83%29.66 "HgN/A
3:00 AM52 °FCool.22 mph83%29.70 "HgN/A
2:00 AM51 °FCool.24 mph83%29.73 "HgN/A
1:00 AM50 °FCool.20 mph83%29.78 "HgN/A
12:00 AM50 °FCool.18 mph83%29.83 "HgN/A
11:00 PM
Dec 24
49 °FCool.18 mph84%29.86 "HgN/A
10:00 PM48 °FCool.18 mph84%29.91 "HgN/A
9:00 PM46 °FCool.17 mph84%29.94 "HgN/A
8:00 PM44 °FQuite cool.16 mph83%29.98 "HgN/A
7:00 PM42 °FQuite cool.17 mph84%30.02 "HgN/A
6:00 PM40 °FChilly.10 mph83%30.05 "HgN/A
5:00 PM37 °FChilly.7 mph87%30.08 "HgN/A
4:00 PM33 °FChilly.5 mph95%30.11 "HgN/A
Weather by CustomWeather, © 2014

See weather overviewHow to use our weather pages